sat.trackr.live / text

‹ back to catalog

TIANLIAN 2-03

NORAD 53100 · 2022-078A

PAYLOAD ACTIVE UNKNOWN

§ Identity

Operator
Country
PRC
Launch date
2022-07-12
Launch site
XICLF
Launch vehicle
Mass (kg)
RCS (m²)

Purposes: comms

External: N2YO · Heavens-Above · Gunter

§ Orbital elements

Epoch: 2026-09-20T03:17:05.324352Z

Period
1,436.09 min
Inclination
0.9079°
Eccentricity
0.0001707
Mean motion
1.00272177 rev/d
Perigee alt
35,779.3 km
Apogee alt
35,793.7 km
Semi-major
42,164.6 km
B*
0.0000e+0
RAAN
77.7936°
Arg perigee
149.3877°
Mean anomaly
191.6980°
Rev number
1,549

§ Raw data

TIANLIAN 2-031 53100U 22078A   26263.13686718  .00000068  00000+0  00000+0 0  99992 53100   0.9079  77.7936 0001707 149.3877 191.6980  1.00272177 15499

JSON: /api/v1/satellites/53100 · /tle

For live sub-satellite position, see the globe view (requires WebGL).

§ Visibility from observer

Set your observer location to see the next 7 days of passes ≥ 10°. The values pass through the URL so the page stays shareable.

No JS? Fill the form by hand. The geolocation button needs JavaScript.